Content
SEND FEEDBACK

Daily
Averages
Monthly
Summary
United States of America

CARSON CITY, NEVADA


Home > North America > United States > Nevada
Elevation: 4742 feet     Latitude: 39 09N     Longitude: 119 46W

WEATHER
 
SELECT A DAY
Number of Records: 98,236;   Date Range: 7/14/10 - 10/24/14
 
SHARE

PRINT THIS DATA

[ ← Previous Day ]
WEATHER ALMANAC - OCTOBER 5, 2013
[ Next Day → ]
[ °C ]   °F
Weather ElementAverageHighLow
Temperature45.7 °F66.2 °F (2:55 pm)24.8 °F (7:15 am)
Dewpoint14.2 °F15.8 °F (3:15 am)10.4 °F (10:35 pm)
Humidity32.7 %64 % (5:35 am)12 % (4:15 pm)
Barometer30.43 in30.51 in (7:55 am)30.35 in (5:35 pm)
Wind Speed4.1 mph13.8 mph (3:55 pm)
Wind Gust18.4 mph (4:15 pm)
Weather ElementAverage
Visibility10 mi
Wind DirectionENE (74.9 °)

Weather ElementTotal
Precipitation---
Heating Degree Days19.5 (Base 65)
Averaged from 71 records on October 5, 2013
WEATHER CONDITIONS BREAKOUT
WIND DIRECTION BREAKOUT
WEATHER BY HOUR - OCTOBER 5, 2013
[ °C ]   °F
Local TimeTemperatureDewpointHumidityBarometerVisibilityWind DirectionWind SpeedGust SpeedPrecipitationEventsConditions
12:35 AM33.8 °F14.0 °F44 %30.44 in10.0 miSW (220°)3.5 mphClear
12:55 AM32.0 °F14.0 °F48 %30.44 in10.0 miCalmClear
1:15 AM33.8 °F14.0 °F44 %30.45 in10.0 miNorth (350°)4.6 mphClear
1:35 AM32.0 °F14.0 °F48 %30.46 in10.0 miCalmClear
1:55 AM32.0 °F14.0 °F48 %30.46 in10.0 miCalmClear
2:15 AM32.0 °F14.0 °F48 %30.46 in10.0 miCalmClear
2:35 AM30.2 °F14.0 °F51 %30.45 in9.0 miEast (90°)3.5 mphClear
2:55 AM32.0 °F14.0 °F48 %30.46 in10.0 miNW (320°)4.6 mphClear
3:15 AM32.0 °F15.8 °F51 %30.46 in10.0 miSSW (210°)4.6 mphClear
3:35 AM32.0 °F15.8 °F51 %30.47 in10.0 miSW (230°)3.5 mphClear
3:55 AM32.0 °F15.8 °F51 %30.47 in10.0 miWNW (300°)3.5 mphClear
4:15 AM30.2 °F14.0 °F51 %30.47 in10.0 miNW (320°)3.5 mphClear
4:35 AM32.0 °F14.0 °F48 %30.48 in10.0 miWNW (300°)3.5 mphClear
4:55 AM32.0 °F15.8 °F51 %30.48 in10.0 miWNW (290°)3.5 mphClear
5:15 AM28.4 °F14.0 °F55 %30.47 in10.0 miCalmClear
5:35 AM26.6 °F15.8 °F64 %30.47 in10.0 miCalmClear
5:55 AM26.6 °F15.8 °F64 %30.48 in10.0 miCalmClear
6:15 AM26.6 °F15.8 °F64 %30.48 in10.0 miCalmClear
6:35 AM30.2 °F15.8 °F55 %30.48 in10.0 miCalmClear
6:55 AM28.4 °F14.0 °F55 %30.49 in10.0 miSSE (150°)3.5 mphClear
7:15 AM24.8 °F14.0 °F64 %30.50 in10.0 miCalmClear
7:35 AM28.4 °F15.8 °F59 %30.50 in10.0 miCalmClear
7:55 AM32.0 °F15.8 °F51 %30.51 in10.0 miCalmClear
8:15 AM32.0 °F15.8 °F51 %30.51 in10.0 miCalmClear
8:35 AM33.8 °F15.8 °F48 %30.51 in10.0 miCalmClear
8:55 AM35.6 °F15.8 °F44 %30.51 in10.0 miCalmClear
9:15 AM37.4 °F14.0 °F38 %30.51 in10.0 miNW (310°)3.5 mphClear
9:35 AM39.2 °F14.0 °F36 %30.51 in10.0 miWNW (300°)3.5 mphClear
9:55 AM41.0 °F14.0 °F33 %30.51 in10.0 miCalmClear
10:15 AM42.8 °F14.0 °F31 %30.51 in10.0 miCalmClear
10:35 AM46.4 °F15.8 °F29 %30.50 in10.0 miCalmClear
10:55 AM48.2 °F15.8 °F27 %30.50 in10.0 miCalmClear
11:15 AM50.0 °F14.0 °F24 %30.49 in10.0 miCalmClear
11:35 AM53.6 °F15.8 °F22 %30.48 in10.0 miEast (90°)4.6 mphClear
11:55 AM55.4 °F15.8 °F21 %30.47 in10.0 miEast (80°)6.9 mphClear
12:15 PM57.2 °F15.8 °F20 %30.47 in10.0 miCalmClear
12:35 PM57.2 °F15.8 °F20 %30.46 in10.0 miEast (80°)4.6 mphClear
12:55 PM59.0 °F15.8 °F19 %30.45 in10.0 miENE (60°)5.8 mphClear
1:15 PM60.8 °F15.8 °F17 %30.44 in10.0 miENE (60°)6.9 mphClear
1:35 PM62.6 °F15.8 °F16 %30.42 in10.0 miENE (70°)8.1 mphClear
1:55 PM64.4 °F15.8 °F15 %30.41 in10.0 miEast (80°)8.1 mphClear
2:15 PM64.4 °F15.8 °F15 %30.40 in10.0 miEast (90°)10.4 mphClear
2:35 PM64.4 °F14.0 °F14 %30.39 in10.0 miEast (80°)10.4 mphClear
2:55 PM66.2 °F14.0 °F13 %30.38 in10.0 miEast (90°)11.5 mph16.1 mphClear
3:15 PM66.2 °F14.0 °F13 %30.38 in10.0 miEast (80°)12.7 mph17.3 mphClear
3:35 PM66.2 °F14.0 °F13 %30.37 in10.0 miEast (90°)11.5 mphClear
3:55 PM66.2 °F14.0 °F13 %30.37 in10.0 miEast (80°)13.8 mphClear
4:15 PM66.2 °F12.2 °F12 %30.37 in10.0 miEast (100°)10.4 mph18.4 mphClear
4:35 PM66.2 °F12.2 °F12 %30.36 in10.0 miEast (90°)12.7 mphClear
4:55 PM66.2 °F12.2 °F12 %30.36 in10.0 miEast (80°)12.7 mph18.4 mphClear
5:15 PM66.2 °F12.2 °F12 %30.36 in10.0 miEast (80°)12.7 mphClear
5:35 PM64.4 °F12.2 °F13 %30.35 in10.0 miEast (80°)13.8 mphClear
5:55 PM64.4 °F12.2 °F13 %30.35 in10.0 miENE (70°)11.5 mphClear
6:15 PM60.8 °F12.2 °F15 %30.36 in10.0 miENE (70°)10.4 mph17.3 mphClear
6:35 PM59.0 °F12.2 °F16 %30.36 in10.0 miENE (60°)12.7 mph18.4 mphClear
6:55 PM59.0 °F12.2 °F16 %30.36 in10.0 miENE (60°)13.8 mph17.3 mphClear
7:15 PM59.0 °F12.2 °F16 %30.37 in10.0 miENE (60°)10.4 mphClear
7:35 PM57.2 °F14.0 °F18 %30.37 in10.0 miCalmClear
7:55 PM53.6 °F14.0 °F21 %30.38 in10.0 miSSE (150°)3.5 mphClear
8:15 PM53.6 °F14.0 °F21 %30.38 in10.0 miCalmClear
8:35 PM48.2 °F14.0 °F25 %30.38 in10.0 miCalmClear
8:55 PM48.2 °F14.0 °F25 %30.39 in10.0 miCalmClear
9:15 PM46.4 °F12.2 °F25 %30.39 in10.0 miCalmClear
9:35 PM44.6 °F12.2 °F27 %30.39 in10.0 miCalmClear
9:55 PM44.6 °F14.0 °F29 %30.39 in10.0 miCalmClear
10:15 PM42.8 °F12.2 °F29 %30.39 in10.0 miCalmClear
10:35 PM41.0 °F10.4 °F29 %30.39 in10.0 miCalmClear
10:55 PM41.0 °F10.4 °F29 %30.39 in10.0 miCalmClear
11:15 PM41.0 °F15.8 °F36 %30.39 in10.0 miCalmClear
11:35 PM41.0 °F14.0 °F33 %30.39 in10.0 miCalmClear
11:55 PM39.2 °F10.4 °F31 %30.39 in10.0 miCalmClear
Hourly data recorded from KCXP, located miles away from Carson City, Nevada







STORIES FROM OUR PARTNERS